Change the Weather History Date:

Sunday, December 23, 2012

  Actual Average Record
Temperature  
Mean Temperature 40 °F 32 °F  
Max Temperature 53 °F 40 °F 59 °F (1996)
Min Temperature 27 °F 25 °F 0 °F (2000)
Degree Days  
Heating Degree Days 25 32  
Month to date heating degree days 486 675  
Since 1 July heating degree days 1533 1533  
Cooling Degree Days 0 0  
Month to date cooling degree days 1 0  
Year to date cooling degree days 1708 1387  
Moisture  
Dew Point 29 °F    
Average Humidity 63    
Maximum Humidity 85    
Minimum Humidity 41    
Precipitation  
Precipitation 0.00 in 0.13 in 1.83 in (1981)
Month to date precipitation 1.02 2.47  
Year to date precipitation 29.18 42.96  
Sea Level Pressure  
Sea Level Pressure 29.95 in    
Wind  
Wind Speed 5 mph (NE)    
Max Wind Speed 10 mph    
Max Gust Speed 12 mph    
Visibility 10 miles    
Events      
T = Trace of Precipitation, MM = Missing Value Source: NWS Daily Summary

Daily Weather History Graph

Daily Weather History Graph

Search for Another Location

Airport or City:

Trip Planner

Search our weather history database for the weather conditions in past years. The results will help you decide how hot, cold, wet, or windy it might be!

Date:

Astronomy

Dec. 23, 2012 Rise Set
Actual Time 7:06 AM CST 4:33 PM CST
Civil Twilight 6:36 AM CST 5:03 PM CST
Nautical Twilight 6:02 AM CST 5:36 PM CST
Astronomical Twilight 5:30 AM CST 6:09 PM CST
Moon 1:22 PM CST (12/23) 2:49 AM CST (12/23)
Length of Visible Light 10h 27m
Length of Day
9h 27m
Waxing Gibbous, 82% of the Moon is Illuminated
Dec 23
Waxing Gibbous
Dec 28
Full
Jan 4
Last Quarter
Jan 11
New
Jan 18
First Quarter

Hourly Weather History & Observations

Time (CST) Temp. Windchill Dew Point Humidity Pressure Visibility Wind Dir Wind Speed Gust Speed Precip Events Conditions
12:53 AM 28.0 °F 20.0 °F 21.9 °F 78% 29.99 in 10.0 mi South 8.1 mph - N/A   Clear
1:53 AM 28.0 °F 20.8 °F 21.9 °F 78% 29.99 in 10.0 mi South 6.9 mph - N/A   Clear
2:53 AM 28.9 °F 23.9 °F 23.0 °F 78% 29.98 in 10.0 mi South 4.6 mph - N/A   Clear
3:53 AM 30.9 °F 27.5 °F 24.1 °F 76% 29.96 in 10.0 mi South 3.5 mph - N/A   Clear
4:53 AM 28.9 °F 25.2 °F 25.0 °F 85% 29.96 in 10.0 mi SSW 3.5 mph - N/A   Clear
5:53 AM 30.0 °F - 25.0 °F 82% 29.97 in 10.0 mi Calm Calm - N/A   Clear
6:53 AM 30.0 °F 26.5 °F 26.1 °F 85% 29.98 in 10.0 mi SSE 3.5 mph - N/A   Clear
7:53 AM 32.0 °F 26.4 °F 28.0 °F 85% 29.98 in 10.0 mi South 5.8 mph - N/A   Clear
8:53 AM 37.0 °F - 30.0 °F 76% 29.99 in 10.0 mi Calm Calm - N/A   Clear
9:53 AM 44.1 °F 42.5 °F 32.0 °F 63% 29.99 in 10.0 mi SW 3.5 mph - N/A   Clear
10:53 AM 48.9 °F - 32.0 °F 52% 29.98 in 10.0 mi Calm Calm - N/A   Clear
11:53 AM 51.1 °F - 30.0 °F 44% 29.96 in 10.0 mi WNW 6.9 mph - N/A   Clear
12:53 PM 52.0 °F - 28.9 °F 41% 29.94 in 10.0 mi WNW 5.8 mph - N/A   Clear
1:53 PM 52.0 °F - 30.0 °F 43% 29.94 in 10.0 mi NW 4.6 mph - N/A   Clear
2:53 PM 52.0 °F - 28.0 °F 40% 29.92 in 10.0 mi NW 5.8 mph - N/A   Clear
3:53 PM 48.9 °F - 34.0 °F 56% 29.92 in 10.0 mi North 3.5 mph - N/A   Unknown
4:53 PM 43.0 °F 38.8 °F 33.1 °F 68% 29.94 in 10.0 mi NNE 6.9 mph - N/A   Clear
5:53 PM 39.0 °F 33.4 °F 32.0 °F 76% 29.95 in 10.0 mi NNE 8.1 mph - N/A   Clear
6:53 PM 39.9 °F 35.8 °F 32.0 °F 73% 29.95 in 10.0 mi ENE 5.8 mph - N/A   Clear
7:53 PM 37.9 °F 32.7 °F 30.9 °F 76% 29.93 in 10.0 mi NE 6.9 mph - N/A   Partly Cloudy
8:53 PM 37.0 °F 31.0 °F 30.0 °F 76% 29.92 in 9.0 mi NE 8.1 mph - N/A   Clear
9:53 PM 37.9 °F 31.5 °F 28.9 °F 70% 29.91 in 9.0 mi NE 9.2 mph - N/A   Mostly Cloudy
10:53 PM 37.9 °F 32.1 °F 30.0 °F 73% 29.90 in 9.0 mi NE 8.1 mph - N/A   Overcast
11:53 PM 37.9 °F 32.7 °F 30.0 °F 73% 29.88 in 9.0 mi NE 6.9 mph - N/A   Overcast